Regional Weather Roundup
Issued by NWS Sioux Falls, SD

Home | Current Version | Previous Version | Graphics & Text | Print | Product List | Glossary Off
Versions: 1 2 3 4 5 6 7 8 9 10 11 12 13 14 15 16 17 18 19 20 21 22 23 24 25 26 27 28 29 30 31 32 33 34 35 36 37 38 39 40 41 42 43 44 45 46 47 48 49 50

000
ASUS43 KFSD 231910
RWRFSD

WEATHER ROUNDUP FOR SE SOUTH DAKOTA/SW MINNESOTA/NW IOWA
NATIONAL WEATHER SERVICE SIOUX FALLS SD
200 PM CDT MON MAY 23 2016

NOTE: "FAIR" INDICATES FEW OR NO CLOUDS BELOW 12,000 FEET WITH NO
SIGNIFICANT WEATHER AND OR OBSTRUCTIONS TO VISIBILITY.


SDZ038>040-050-052>070-232000-
SOUTHEAST SOUTH DAKOTA

CITY           SKY/WX    TMP DP  RH WIND       PRES   REMARKS
BROOKINGS      CLOUDY    71  60  68 SW12      29.76S
CHAMBERLAIN    SUNNY     75  55  50 SW7       29.73F
HURON          CLOUDY    75  54  47 SW6       29.72S
MADISON        FAIR      68  66  94 SW13G18   29.77F
MITCHELL       CLOUDY    72  57  59 S5        29.75S
SIOUX FALLS    CLOUDY    72  64  76 W8        29.76F
WINNER         FAIR      74  50  42 SW12      29.74F
YANKTON        CLOUDY    72  61  68 W9        29.74F
$$

MNZ071-072-080-081-089-090-097-098-232000-
SOUTHWEST MINNESOTA

CITY           SKY/WX    TMP DP  RH WIND       PRES   REMARKS
FAIRMONT       CLOUDY    72  61  68 S20G28    29.78R
JACKSON        CLOUDY    73  61  64 SW17G25   29.79R
LUVERNE        CLOUDY    72  63  73 S14       29.77F
MARSHALL       LGT RAIN  71  64  78 W14       29.76S
MONTEVIDEO     MOSUNNY   79  61  53 W13G20    29.76S
PIPESTONE      CLOUDY    70  64  83 W9        29.78S
REDWOOD FALLS  PTSUNNY   79  58  48 S13G23    29.74S
TRACY          CLOUDY    77  63  61 SW17G23   29.77S
WINDOM         CLOUDY    75  61  60 S5G21     29.77S
WORTHINGTON    CLOUDY    73  64  73 SW20      29.77F
$$

IAZ001>003-012>014-020>022-031-032-NEZ013-014-SDZ071-232000-
NORTHWEST IOWA

CITY           SKY/WX    TMP DP  RH WIND       PRES   REMARKS
CHEROKEE       CLOUDY    75  67  78 S13       29.76F
DENISON        CLOUDY    68  64  88 SE20G28   29.75F FOG
ESTHERVILLE    PTSUNNY   73  62  68 S24G32    29.77F
LE MARS        CLOUDY    75  68  78 SW13G18   29.75F
ORANGE CITY    PTSUNNY   73  66  78 SW10      29.76F
SHELDON        CLOUDY    72  66  83 S15       29.75F
SIOUX CITY     CLOUDY    79  68  69 SW12      29.73F
SPENCER        CLOUDY    74  63  68 S17       29.77S
STORM LAKE     CLOUDY    73  63  68 SE17      29.77F
$$

ABBREVIATIONS USED IN REMARKS
   TC - TEMPERATURE IN CELSIUS
  WCI - WIND CHILL INDEX
   HX - HEAT INDEX
  VSB - VISIBILITY




USA.gov is the U.S. government's official web portal to all federal, state and local government web resources and services.